• In Deutschland
  • Länderverzeichnis
  • Für 7 Tage
  • Wassertemperatur
  • Satellitenkarten
  • Wetterkarte
  • Widgets
  • user-avatar
    Anmelden

    Stündliche Wetter Benguela

    Heute, 21 Mai, Montag

    Zeit Temperatur Niederschläge Wind Luftdruck Luftfeuchtigkeit
    00:00 +26°C° 0 mm 1 m/S 759 mmHg 82%
    01:00 +25°C° 0 mm 1 m/S 759 mmHg 82%
    02:00 +25°C° 0 mm 1 m/S 759 mmHg 82%
    03:00 +25°C° 0 mm 1 m/S 759 mmHg 83%
    04:00 +25°C° 0 mm 1 m/S 759 mmHg 83%
    05:00 +25°C° 0 mm 1 m/S 759 mmHg 82%
    06:00 +26°C° 0 mm 1 m/S 759 mmHg 80%
    07:00 +26°C° 0 mm 1 m/S 760 mmHg 77%
    08:00 +28°C° 0 mm 1 m/S 760 mmHg 69%
    09:00 +30°C° 0 mm 1 m/S 760 mmHg 60%
    10:00 +32°C° 0 mm 1 m/S 760 mmHg 51%
    11:00 +34°C° 0 mm 2 m/S 759 mmHg 49%
    12:00 +36°C° 0 mm 3 m/S 759 mmHg 46%
    13:00 +36°C° 0 mm 4 m/S 758 mmHg 45%
    14:00 +35°C° 0 mm 4 m/S 758 mmHg 48%
    15:00 +34°C° 0 mm 4 m/S 757 mmHg 51%
    16:00 +34°C° 0 mm 4 m/S 757 mmHg 54%
    17:00 +32°C° 0 mm 4 m/S 757 mmHg 61%
    18:00 +29°C° 0 mm 3 m/S 758 mmHg 69%
    19:00 +27°C° 0 mm 3 m/S 758 mmHg 76%
    20:00 +27°C° 0 mm 2 m/S 759 mmHg 77%
    21:00 +26°C° 0 mm 2 m/S 759 mmHg 79%
    22:00 +26°C° 0 mm 2 m/S 760 mmHg 80%
    23:00 +26°C° 0 mm 2 m/S 759 mmHg 80%

    Morgen, 22 Mai, Dienstag

    Zeit Temperatur Niederschläge Wind Luftdruck Luftfeuchtigkeit
    00:00 +26°C° 0 mm 2 m/S 759 mmHg 80%
    01:00 +26°C° 0 mm 2 m/S 759 mmHg 80%
    02:00 +26°C° 0 mm 2 m/S 759 mmHg 77%
    03:00 +26°C° 0 mm 2 m/S 759 mmHg 75%
    04:00 +26°C° 0 mm 2 m/S 758 mmHg 72%
    05:00 +27°C° 0 mm 2 m/S 759 mmHg 69%
    06:00 +27°C° 0 mm 2 m/S 759 mmHg 67%
    07:00 +27°C° 0 mm 2 m/S 759 mmHg 64%
    08:00 +29°C° 0 mm 1 m/S 759 mmHg 60%
    09:00 +31°C° 0 mm 1 m/S 759 mmHg 56%
    10:00 +32°C° 0 mm 1 m/S 759 mmHg 51%
    11:00 +35°C° 0 mm 2 m/S 759 mmHg 46%
    12:00 +37°C° 0 mm 3 m/S 758 mmHg 42%
    13:00 +40°C° 0 mm 4 m/S 758 mmHg 37%
    14:00 +37°C° 0 mm 4 m/S 758 mmHg 41%
    15:00 +36°C° 0 mm 4 m/S 757 mmHg 45%
    16:00 +35°C° 0 mm 4 m/S 757 mmHg 49%
    17:00 +33°C° 0 mm 3 m/S 758 mmHg 55%
    18:00 +30°C° 0 mm 3 m/S 758 mmHg 61%
    19:00 +29°C° 0 mm 2 m/S 759 mmHg 67%
    20:00 +29°C° 0 mm 2 m/S 759 mmHg 66%
    21:00 +28°C° 0 mm 2 m/S 760 mmHg 66%
    22:00 +28°C° 0 mm 1 m/S 760 mmHg 66%
    23:00 +28°C° 0 mm 1 m/S 760 mmHg 66%

    übermorgen, 23 Mai, Mittwoch

    Zeit Temperatur Niederschläge Wind Luftdruck Luftfeuchtigkeit
    00:00 +28°C° 0 mm 1 m/S 760 mmHg 65%
    01:00 +28°C° 0 mm 1 m/S 760 mmHg 65%
    02:00 +28°C° 0 mm 1 m/S 760 mmHg 64%
    03:00 +28°C° 0 mm 1 m/S 759 mmHg 63%
    04:00 +28°C° 0 mm 1 m/S 759 mmHg 62%
    05:00 +28°C° 0 mm 1 m/S 759 mmHg 62%
    06:00 +28°C° 0 mm 1 m/S 759 mmHg 61%
    07:00 +28°C° 0 mm 1 m/S 760 mmHg 61%
    08:00 +31°C° 0 mm 2 m/S 760 mmHg 53%
    09:00 +34°C° 0 mm 2 m/S 760 mmHg 45%
    10:00 +37°C° 0 mm 2 m/S 761 mmHg 37%
    11:00 +37°C° 0 mm 3 m/S 760 mmHg 35%
    12:00 +38°C° 0 mm 3 m/S 759 mmHg 34%
    13:00 +40°C° 0 mm 4 m/S 759 mmHg 32%
    14:00 +38°C° 0 mm 4 m/S 758 mmHg 38%
    15:00 +36°C° 0 mm 3 m/S 758 mmHg 43%
    16:00 +35°C° 0 mm 3 m/S 758 mmHg 49%
    17:00 +32°C° 0 mm 2 m/S 758 mmHg 55%
    18:00 +30°C° 0 mm 2 m/S 759 mmHg 62%
    19:00 +29°C° 0 mm 1 m/S 759 mmHg 69%
    20:00 +28°C° 0 mm 1 m/S 760 mmHg 70%
    21:00 +28°C° 0 mm 1 m/S 760 mmHg 71%
    22:00 +27°C° 0 mm 1 m/S 761 mmHg 73%
    23:00 +27°C° 0 mm 1 m/S 761 mmHg 73%

    24 Mai, Donnerstag

    Zeit Temperatur Niederschläge Wind Luftdruck Luftfeuchtigkeit
    00:00 +27°C° 0 mm 1 m/S 760 mmHg 73%
    01:00 +27°C° 0 mm 1 m/S 760 mmHg 73%
    02:00 +26°C° 0 mm 1 m/S 760 mmHg 70%
    03:00 +26°C° 0 mm 2 m/S 759 mmHg 68%
    04:00 +25°C° 0 mm 2 m/S 759 mmHg 65%
    05:00 +25°C° 0 mm 2 m/S 759 mmHg 60%
    06:00 +25°C° 0 mm 2 m/S 760 mmHg 56%
    07:00 +25°C° 0 mm 2 m/S 760 mmHg 51%
    08:00 +29°C° 0 mm 2 m/S 760 mmHg 43%
    09:00 +32°C° 0 mm 2 m/S 760 mmHg 35%
    10:00 +37°C° 0 mm 2 m/S 760 mmHg 28%
    11:00 +38°C° 0 mm 3 m/S 760 mmHg 26%
    12:00 +38°C° 0 mm 3 m/S 759 mmHg 25%
    13:00 +40°C° 0 mm 4 m/S 758 mmHg 23%
    14:00 +38°C° 0 mm 4 m/S 758 mmHg 29%
    15:00 +37°C° 0 mm 4 m/S 757 mmHg 34%
    16:00 +36°C° 0 mm 3 m/S 757 mmHg 40%
    17:00 +33°C° 0 mm 3 m/S 757 mmHg 48%
    18:00 +30°C° 0 mm 2 m/S 758 mmHg 56%
    19:00 +28°C° 0 mm 1 m/S 758 mmHg 64%
    20:00 +27°C° 0 mm 1 m/S 759 mmHg 64%
    21:00 +27°C° 0 mm 1 m/S 759 mmHg 64%
    22:00 +27°C° 0 mm 1 m/S 760 mmHg 64%
    23:00 +26°C° 0 mm 1 m/S 760 mmHg 63%

    25 Mai, Freitag

    Zeit Temperatur Niederschläge Wind Luftdruck Luftfeuchtigkeit
    00:00 +26°C° 0 mm 1 m/S 759 mmHg 61%
    01:00 +25°C° 0 mm 1 m/S 759 mmHg 59%
    02:00 +25°C° 0 mm 2 m/S 759 mmHg 56%
    03:00 +25°C° 0 mm 2 m/S 759 mmHg 53%
    04:00 +25°C° 0 mm 2 m/S 759 mmHg 49%
    05:00 +25°C° 0 mm 2 m/S 759 mmHg 48%
    06:00 +24°C° 0 mm 2 m/S 759 mmHg 46%
    07:00 +24°C° 0 mm 2 m/S 760 mmHg 45%
    08:00 +28°C° 0 mm 2 m/S 760 mmHg 39%
    09:00 +31°C° 0 mm 2 m/S 760 mmHg 33%
    10:00 +35°C° 0 mm 2 m/S 759 mmHg 27%
    11:00 +37°C° 0 mm 3 m/S 759 mmHg 27%
    12:00 +38°C° 0 mm 3 m/S 758 mmHg 26%
    13:00 +40°C° 0 mm 4 m/S 757 mmHg 25%
    14:00 +38°C° 0 mm 4 m/S 757 mmHg 30%
    15:00 +37°C° 0 mm 4 m/S 756 mmHg 35%
    16:00 +36°C° 0 mm 3 m/S 756 mmHg 39%
    17:00 +34°C° 0 mm 3 m/S 757 mmHg 47%
    18:00 +30°C° 0 mm 2 m/S 757 mmHg 54%
    19:00 +28°C° 0 mm 1 m/S 758 mmHg 62%
    20:00 +27°C° 0 mm 1 m/S 758 mmHg 62%
    21:00 +27°C° 0 mm 1 m/S 759 mmHg 62%
    22:00 +27°C° 0 mm 1 m/S 759 mmHg 62%
    23:00 +26°C° 0 mm 1 m/S 759 mmHg 61%

    26 Mai, Samstag

    Zeit Temperatur Niederschläge Wind Luftdruck Luftfeuchtigkeit
    00:00 +26°C° 0 mm 1 m/S 759 mmHg 60%
    01:00 +26°C° 0 mm 1 m/S 758 mmHg 59%
    02:00 +25°C° 0 mm 1 m/S 758 mmHg 57%
    03:00 +25°C° 0 mm 1 m/S 758 mmHg 55%
    04:00 +25°C° 0 mm 1 m/S 758 mmHg 53%
    05:00 +25°C° 0 mm 1 m/S 758 mmHg 52%
    06:00 +25°C° 0 mm 1 m/S 759 mmHg 51%
    07:00 +25°C° 0 mm 2 m/S 759 mmHg 51%
    08:00 +28°C° 0 mm 2 m/S 759 mmHg 44%
    09:00 +32°C° 0 mm 2 m/S 759 mmHg 38%
    10:00 +36°C° 0 mm 2 m/S 759 mmHg 31%
    11:00 +37°C° 0 mm 3 m/S 758 mmHg 31%
    12:00 +38°C° 0 mm 3 m/S 757 mmHg 31%
    13:00 +38°C° 0 mm 4 m/S 757 mmHg 30%
    14:00 +37°C° 0 mm 4 m/S 756 mmHg 34%
    15:00 +37°C° 0 mm 4 m/S 756 mmHg 37%
    16:00 +36°C° 0 mm 3 m/S 756 mmHg 40%
    17:00 +34°C° 0 mm 3 m/S 756 mmHg 47%
    18:00 +31°C° 0 mm 2 m/S 757 mmHg 53%
    19:00 +29°C° 0 mm 1 m/S 758 mmHg 60%
    20:00 +29°C° 0 mm 1 m/S 758 mmHg 59%
    21:00 +29°C° 0 mm 2 m/S 758 mmHg 58%
    22:00 +29°C° 0 mm 2 m/S 759 mmHg 57%
    23:00 +28°C° 0 mm 2 m/S 759 mmHg 56%
    Mehr zeigen